Weather History for Sparta, TN

Change the Weather History Date:

Sunday, August 17, 2014

  Actual Average (KCSV) Record (KCSV)
Temperature  
Mean Temperature 74 °F 74 °F  
Max Temperature 80 °F 84 °F 94 °F (1988)
Min Temperature 69 °F 64 °F 50 °F (1979)
Degree Days  
Heating Degree Days 0    
Month to date heating degree days  
Since 1 June heating degree days  
Since 1 July heating degree days  
Cooling Degree Days 10    
Month to date cooling degree days  
Year to date cooling degree days  
Since 1 June cooling degree days  
Growing Degree Days 24 (Base 50)    
Moisture  
Dew Point 70 °F    
Average Humidity 87    
Maximum Humidity 100    
Minimum Humidity 73    
Precipitation  
Precipitation 0.00 in 0.13 in 2.39 in (1982)
Month to date precipitation 2.36  
Year to date precipitation 36.49  
Sea Level Pressure  
Sea Level Pressure 29.98 in    
Wind  
Wind Speed 3 mph (South)    
Max Wind Speed 10 mph    
Max Gust Speed -    
Visibility 10 miles    
Events      
T = Trace of Precipitation, MM = Missing Value Source: NWS Daily Summary

Daily Weather History Graph

Daily Weather History Graph

Search for Another Location

Airport:

Trip Planner

Search our weather history database for the weather conditions in past years. The results will help you decide how hot, cold, wet, or windy it might be!

Date:

Astronomy

Aug. 17, 2014 Rise Set
Actual Time 6:02 AM CDT 7:29 PM CDT
Civil Twilight 5:34 AM CDT 7:56 PM CDT
Nautical Twilight 5:02 AM CDT 8:29 PM CDT
Astronomical Twilight 4:28 AM CDT 9:03 PM CDT
Moon No Moon Rise 1:32 PM CDT (8/17)
Length of Visible Light 14h 21m
Length of Day
13h 27m
Waning Gibbous, 48% of the Moon is Illuminated
Aug 17
Waning Gibbous
Aug 25
New
Sep 2
First Quarter
Sep 8
Full
Sep 15
Last Quarter

Hourly Weather History & Observations

Time (CDT) Temp. Heat Index Dew Point Humidity Pressure Visibility Wind Dir Wind Speed Gust Speed Precip Events Conditions
12:15 AM 73.4 °F - 66.2 °F 78% 30.02 in 10.0 mi South 3.5 mph - N/A   Clear
12:35 AM 73.4 °F - 66.2 °F 78% 30.02 in 10.0 mi South 3.5 mph - N/A   Clear
12:55 AM 73.4 °F - 66.2 °F 78% 30.02 in 10.0 mi Calm Calm - N/A   Clear
1:15 AM 73.4 °F - 66.2 °F 78% 30.01 in 10.0 mi South 3.5 mph - N/A   Clear
1:35 AM 73.4 °F - 66.2 °F 78% 30.00 in 10.0 mi Calm Calm - N/A   Clear
1:55 AM 71.6 °F - 66.2 °F 83% 30.00 in 10.0 mi Calm Calm - N/A   Clear
2:15 AM 71.6 °F - 68.0 °F 88% 30.01 in 10.0 mi Calm Calm - N/A   Clear
2:35 AM 71.6 °F - 68.0 °F 88% 30.01 in 10.0 mi Calm Calm - N/A   Clear
2:55 AM 69.8 °F - 68.0 °F 94% 30.00 in 10.0 mi Calm Calm - N/A   Partly Cloudy
3:15 AM 69.8 °F - 66.2 °F 88% 30.00 in 10.0 mi Calm Calm - N/A   Scattered Clouds
3:35 AM 69.8 °F - 66.2 °F 88% 30.00 in 10.0 mi Calm Calm - N/A   Partly Cloudy
3:55 AM 69.8 °F - 66.2 °F 88% 30.00 in 10.0 mi Calm Calm - N/A   Clear
4:15 AM 69.8 °F - 66.2 °F 88% 30.00 in 10.0 mi Calm Calm - N/A   Clear
4:35 AM 69.8 °F - 66.2 °F 88% 30.00 in 10.0 mi Calm Calm - N/A   Clear
4:55 AM 69.8 °F - 66.2 °F 88% 30.00 in 10.0 mi Calm Calm - N/A   Clear
5:15 AM 69.8 °F - 66.2 °F 88% 29.99 in 10.0 mi Calm Calm - N/A   Partly Cloudy
5:35 AM 69.8 °F - 66.2 °F 88% 30.00 in 10.0 mi Calm Calm - N/A   Scattered Clouds
5:55 AM 71.6 °F - 66.2 °F 83% 30.01 in 10.0 mi South 3.5 mph - N/A   Mostly Cloudy
6:15 AM 71.6 °F - 66.2 °F 83% 30.03 in 10.0 mi Calm Calm - N/A   Scattered Clouds
6:35 AM 71.6 °F - 66.2 °F 83% 30.02 in 10.0 mi Calm Calm - N/A   Scattered Clouds
6:55 AM 71.6 °F - 66.2 °F 83% 30.02 in 10.0 mi Calm Calm - N/A   Scattered Clouds
7:15 AM 71.6 °F - 66.2 °F 83% 30.01 in 10.0 mi South 5.8 mph - N/A   Partly Cloudy
7:35 AM 71.6 °F - 66.2 °F 83% 30.01 in 10.0 mi South 4.6 mph - N/A   Clear
7:55 AM 73.4 °F - 66.2 °F 78% 30.01 in 10.0 mi South 5.8 mph - N/A   Clear
8:15 AM 73.4 °F - 66.2 °F 78% 30.02 in 10.0 mi South 3.5 mph - N/A   Clear
8:35 AM 75.2 °F - 66.2 °F 73% 30.02 in 10.0 mi South 3.5 mph - N/A   Clear
8:55 AM 75.2 °F - 68.0 °F 78% 30.01 in 10.0 mi Calm Calm - N/A   Clear
9:15 AM 75.2 °F - 68.0 °F 78% 30.01 in 10.0 mi South 3.5 mph - N/A   Partly Cloudy
9:35 AM 78.8 °F - 69.8 °F 74% 30.01 in 10.0 mi SSW 5.8 mph - N/A   Scattered Clouds
9:55 AM 78.8 °F - 69.8 °F 74% 30.01 in 10.0 mi South 4.6 mph - N/A   Mostly Cloudy
10:15 AM 80.6 °F 84.6 °F 71.6 °F 74% 30.01 in 10.0 mi SSW 6.9 mph - N/A   Mostly Cloudy
10:35 AM 80.6 °F 84.6 °F 71.6 °F 74% 30.00 in 10.0 mi SSW 5.8 mph - N/A   Partly Cloudy
10:55 AM 80.6 °F 84.6 °F 71.6 °F 74% 30.01 in 10.0 mi SSW 6.9 mph - N/A   Clear
11:15 AM 80.6 °F 84.6 °F 71.6 °F 74% 30.01 in 10.0 mi SW 6.9 mph - N/A   Scattered Clouds
11:35 AM 80.6 °F 84.6 °F 71.6 °F 74% 30.01 in 10.0 mi SW 4.6 mph - N/A   Mostly Cloudy
11:55 AM 78.8 °F - 73.4 °F 83% 30.02 in 10.0 mi WNW 4.6 mph - N/A   Overcast
12:15 PM 71.6 °F - 69.8 °F 94% 30.04 in 0.8 mi Variable 6.9 mph - N/A   Overcast
12:35 PM 69.8 °F - 69.8 °F 100% 30.01 in 4.0 mi SSE 4.6 mph - N/A   Overcast
12:55 PM 71.6 °F - 69.8 °F 94% 30.01 in 3.0 mi Calm Calm - N/A   Mostly Cloudy
1:15 PM 71.6 °F - 69.8 °F 94% 30.00 in 9.0 mi SSE 3.5 mph - N/A   Overcast
1:35 PM 71.6 °F - 69.8 °F 94% 30.00 in 10.0 mi SE 4.6 mph - N/A   Overcast
1:55 PM 71.6 °F - 69.8 °F 94% 29.98 in 10.0 mi South 5.8 mph - N/A   Mostly Cloudy
2:15 PM 71.6 °F - 71.6 °F 100% 29.98 in 10.0 mi SSW 3.5 mph - N/A   Partly Cloudy
2:35 PM 73.4 °F - 71.6 °F 94% 29.98 in 10.0 mi Calm Calm - N/A   Partly Cloudy
2:55 PM 73.4 °F - 71.6 °F 94% 29.98 in 10.0 mi SE 4.6 mph - N/A   Scattered Clouds
3:15 PM 73.4 °F - 71.6 °F 94% 29.97 in 10.0 mi SSE 5.8 mph - N/A   Scattered Clouds
3:35 PM 75.2 °F - 73.4 °F 94% 29.97 in 10.0 mi South 10.4 mph - N/A   Partly Cloudy
4:15 PM 77.0 °F - 71.6 °F 83% 29.96 in 10.0 mi South 8.1 mph - N/A   Scattered Clouds
4:35 PM 77.0 °F - 71.6 °F 83% 29.95 in 10.0 mi South 6.9 mph - N/A   Partly Cloudy
4:55 PM 77.0 °F - 71.6 °F 83% 29.94 in 10.0 mi SSW 5.8 mph - N/A   Clear
5:15 PM 77.0 °F - 73.4 °F 89% 29.94 in 10.0 mi South 4.6 mph - N/A   Clear
5:35 PM 77.0 °F - 73.4 °F 89% 29.94 in 10.0 mi South 5.8 mph - N/A   Clear
5:55 PM 77.0 °F - 73.4 °F 89% 29.94 in 10.0 mi South 4.6 mph - N/A   Partly Cloudy
6:15 PM 77.0 °F - 71.6 °F 83% 29.93 in 10.0 mi South 6.9 mph - N/A   Mostly Cloudy
6:35 PM 75.2 °F - 71.6 °F 89% 29.95 in 10.0 mi South 6.9 mph - N/A   Partly Cloudy
6:55 PM 75.2 °F - 71.6 °F 89% 29.93 in 10.0 mi South 6.9 mph - N/A   Clear
7:15 PM 75.2 °F - 71.6 °F 89% 29.93 in 10.0 mi South 4.6 mph - N/A   Clear
7:35 PM 75.2 °F - 71.6 °F 89% 29.94 in 10.0 mi SSW 4.6 mph - N/A   Clear
7:55 PM 75.2 °F - 71.6 °F 89% 29.94 in 10.0 mi Calm Calm - N/A   Clear
8:15 PM 73.4 °F - 71.6 °F 94% 29.94 in 10.0 mi Calm Calm - N/A   Scattered Clouds
8:35 PM 73.4 °F - 71.6 °F 94% 29.96 in 3.0 mi SW 3.5 mph - N/A   Mostly Cloudy
8:55 PM 73.4 °F - 71.6 °F 94% 29.96 in 10.0 mi South 3.5 mph - N/A   Overcast
9:15 PM 73.4 °F - 71.6 °F 94% 29.95 in 10.0 mi South 3.5 mph - N/A   Mostly Cloudy
9:35 PM 73.4 °F - 71.6 °F 94% 29.94 in 10.0 mi South 3.5 mph - N/A   Scattered Clouds
9:55 PM 73.4 °F - 71.6 °F 94% 29.94 in 10.0 mi South 3.5 mph - N/A   Mostly Cloudy
10:15 PM 73.4 °F - 71.6 °F 94% 29.93 in 10.0 mi South 4.6 mph - N/A   Partly Cloudy
10:35 PM 73.4 °F - 71.6 °F 94% 29.94 in 10.0 mi Calm Calm - N/A   Clear
10:55 PM 71.6 °F - 71.6 °F 100% 29.94 in 10.0 mi Calm Calm - N/A   Partly Cloudy
11:15 PM 71.6 °F - 71.6 °F 100% 29.93 in 10.0 mi Calm Calm - N/A   Scattered Clouds
11:35 PM 71.6 °F - 71.6 °F 100% 29.94 in 10.0 mi Calm Calm - N/A   Mostly Cloudy
11:55 PM 71.6 °F - 71.6 °F 100% 29.94 in 10.0 mi Calm Calm - N/A   Overcast